Location: Bemmer
(51.5498°N, 5.6249°E)
Time: 15:48:44
(UTC+00:00)

Cosmos 2366 rocket - Pass Details

Date: 03 March 2021
Orbit: 954 x 997 km, 82.9° (Epoch: 13 April)

Event Time Altitude Azimuth Distance (km) Brightness Sun altitude
Rises 20:07:08 0° 200° (SSW) 3,686 7.0 -26.0°
Reaches altitude 10° 20:09:41 10° 204° (SSW) 2,747 6.3 -26.3°
Maximum altitude 20:15:55 61° 284° (WNW) 1,128 4.5 -27.2°
Drops below altitude 10° 20:22:15 10° 5° (N) 2,779 6.6 -28.1°
Sets 20:24:50 0° 9° (N) 3,733 7.3 -28.4°
